This is the latest recevied weather packets stored in our database for station/object KF5JED-13. If no packets are shown the sender has not sent any weather packets the latest 10 day(s).
| Time | Temp. | Humidity | Pressure | Rain* | Wind** | Luminosity | Snow |
|---|---|---|---|---|---|---|---|
| 1777416944 | 28.33° C | 9% | 1011.9 hPa | 0 mm | - | 381 W/m² | - |
| 1777416638 | 28.33° C | 9% | 1012 hPa | 0 mm | - | 395 W/m² | - |
| 1777416334 | 28.33° C | 9% | 1012.1 hPa | 0 mm | - | 408 W/m² | - |
| 1777416034 | 28.33° C | 10% | 1012.1 hPa | 0 mm | - | 426 W/m² | - |
| 1777415730 | 27.78° C | 9% | 1012.2 hPa | 0 mm | - | 440 W/m² | - |
| 1777415426 | 28.89° C | 10% | 1012.2 hPa | 0 mm | - | 458 W/m² | - |
| 1777415125 | 28.33° C | 9% | 1012.1 hPa | 0 mm | - | 477 W/m² | - |
| 1777414820 | 28.89° C | 10% | 1012.2 hPa | 0 mm | - | 491 W/m² | - |
| 1777414516 | 28.89° C | 9% | 1012.3 hPa | 0 mm | - | 508 W/m² | - |
| 1777414215 | 28.33° C | 9% | 1012.2 hPa | 0 mm | - | 525 W/m² | - |
| 1777413910 | 28.33° C | 9% | 1012.5 hPa | 0 mm | - | 542 W/m² | - |
| 1777413606 | 28.33° C | 9% | 1012.5 hPa | 0 mm | - | 558 W/m² | - |
| 1777413302 | 28.89° C | 10% | 1012.3 hPa | 0 mm | - | 575 W/m² | - |
| 1777412993 | 28.89° C | 11% | 1012.5 hPa | 0 mm | - | 588 W/m² | - |
| 1777412691 | 28.33° C | 9% | 1012.6 hPa | 0 mm | - | 601 W/m² | - |
| 1777412390 | 28.89° C | 10% | 1012.6 hPa | 0 mm | - | 622 W/m² | - |
| 1777412084 | 28.33° C | 10% | 1012.7 hPa | 0 mm | - | 634 W/m² | - |
| 1777411780 | 28.89° C | 10% | 1012.8 hPa | 0 mm | - | 645 W/m² | - |
| 1777411479 | 28.33° C | 13% | 1013 hPa | 0 mm | - | 654 W/m² | - |
| 1777411179 | 27.78° C | 12% | 1012.9 hPa | 0 mm | - | 664 W/m² | - |
| 1777410873 | 27.78° C | 12% | 1013 hPa | 0 mm | - | 673 W/m² | - |
| 1777410573 | 28.33° C | 13% | 1013.2 hPa | 0 mm | - | 688 W/m² | - |
| 1777410267 | 27.22° C | 13% | 1013.2 hPa | 0 mm | - | 702 W/m² | - |
| 1777409962 | 27.78° C | 14% | 1013.2 hPa | 0 mm | - | 715 W/m² | - |
| 1777409657 | 27.78° C | 14% | 1013.1 hPa | 0 mm | - | 728 W/m² | - |
* Rain latest hour (hover to see other rain measurements)
** Current wind speed in m/s (hover to see current wind gust speed)